User: anonymous   Login
Location: Theydon Bois
(51.6750°N, 0.1050°E)
Time: 12:04:17
(UTC+01:00)
Language:

Cosmos 1727 Rocket - Orbit

View from above orbital plane
View from above orbital plane
View from above satellite
View from above satellite

Ground track
Ground track

The orbit data is extracted from the following two-line orbital elements,

1 16511U 86008B   18203.22393819  .00000034  00000-0  20029-4 0  9991
2 16511  82.9451 283.2429 0022936 243.5014 144.7855 13.75820188631283
Epoch (UTC): 22 July 2018 05:22:28
Eccentricity: 0.0022936
inclination: 82.9451°
perigee height: 962 km
apogee height: 995 km
right ascension of ascending node: 283.2429°
argument of perigee: 243.5014°
revolutions per day: 13.75820188
mean anomaly at epoch: 144.7855°
orbit number at epoch: 63128

The dashed part of the orbit path shows where the satellite is in the earth's shadow,  

DLR